Incheon International Airport

Airport
ICAO code: 
RKSI
IATA Code: 
ICN
Summary
ICAO Region: 
APAC
Territory: 
Location: 
Jung District, Incheon,
Serving: 
Seoul
Elevation: 
23 ft
Coordinates: 
Aerial View: 
37° 27' 52.041" N, 126° 27' 13.612" E
Metar
Observation
RKSI 190300Z 14006KT 110V170 6000 -SN FEW006 BKN025 OVC070 M03/M05 Q1024 BECMG NSW
Station
Incheon International Airport
Date/Time
2022-01-19 03:00:00
Wind direction
140°
Wind speed
06 kts
Lowest cloud amount
few clouds
Temperature
-3°C
Dew point
-5°C
Humidity
86%
QNH
1024 hPa
Weather condition
n/a

Description

Incheon International Airport is the main international airport in South Korea and one of the largest and busiest in south east Asia. It is located within the Seoul National Capital Area.

Climatology

Warm continental climate/Humid continental climate/Humid subtropical climate (Köppen climate classification Dwa/Cwa)

Runways

Designator Length Width Surface Rops
15L/33R 3750 60 PEM Yes/Yes
15R/33L 3750 60 PEM Yes/Yes
Airport map: 
Aerial View: 

Accidents and Serious Incidents at or in the vicinity of RKSI

SKYbrary Partners:

Safety knowledge contributed by: